Location: Barcelona
(41.3830°N, 2.1830°E)
Time: 00:18:15
(UTC+01:00)

ISS - Visible Passes

Search period start: 27 February 2020 00:00
Search period end: 08 March 2020 00:00
Orbit: 415 x 422 km, 51.6° (Epoch: 27 February)

Date Brightness Start Highest point End Pass type
(mag) Time Alt. Az. Time Alt. Az. Time Alt. Az.
27 Feb -3.0 05:59:19 36° NW 05:59:30 37° NNW 06:02:40 10° NE visible
28 Feb -1.5 05:13:40 23° NE 05:13:40 23° NE 05:15:07 10° NE visible
28 Feb -1.7 06:46:47 10° WNW 06:49:09 17° NNW 06:51:31 10° NNE visible
29 Feb -2.0 06:00:53 20° NNW 06:01:18 21° NNW 06:03:57 10° NE visible
01 Mar -1.3 05:15:06 18° NNE 05:15:06 18° NNE 05:16:24 10° NE visible
01 Mar -1.4 06:49:09 10° NW 06:51:08 14° N 06:53:06 10° NNE visible
02 Mar -1.5 06:02:13 14° NNW 06:03:13 15° N 06:05:19 10° NNE visible
03 Mar -1.2 05:16:21 15° N 05:16:21 15° N 05:17:40 10° NNE visible
03 Mar -1.3 06:50:59 10° NNW 06:53:06 15° N 06:55:13 10° NE visible
04 Mar -1.3 06:03:24 11° NNW 06:05:09 14° N 06:07:07 10° NE visible
05 Mar -1.2 05:17:31 14° N 05:17:31 14° N 05:19:10 10° NNE visible
05 Mar -1.6 06:52:17 10° NW 06:54:56 21° NNE 06:57:36 10° ENE visible
06 Mar -1.4 06:04:40 10° NNW 06:07:02 17° NNE 06:09:23 10° ENE visible
07 Mar -1.3 05:18:41 15° N 05:19:05 15° N 05:21:11 10° NE visible
